Naremburn Real Estate, NSW, 2065 Willoughby

Thinking about buying in Naremburn? Now could not be a better time, with a whopping 3555 properties either residential or commercial there's certainly plenty to choose from.

The average property price for this area is $1,873,000 with prices in this suburb ranging from $535,000 to $3,062,000.

Distance to the coast is 2 Km.

Naremburn Real Estate Market Outlook

Consistent high demand relative to supply is a key feature in Naremburn driving regular price increases. Recent rapid price increases however may constrain future growth by limiting demand. High average incomes in Naremburn ensure a focus on quality with a commensurate high entry price under constant demand. Competition for available quality housing is intense with multiple offers likely to be made in excess of asking prices. The high percentage of professional people in Naremburn classifies the area as "gentrified". This implies high demand for quality housing, generally of larger than average size. Price growth is ensured even where the state affordability index is negatively impacting other areas. Medium density in Naremburn necessitates a mix of lifestyle options for housing, shops, open areas, and facilties. Where this is available, demand is high and growth ensured. High industry presence in the wider area is a double-edged sword. While local employment options are high, the presence of industrial buildings may negatively impact lifestyle perception. Demand from first home buyers and investors however ensures good price growth.

About

Properties For Sale

McGrath UNIT 2, 5 GARLAND RD, NAREMBURN, NSW, 2065 2 2 2 Price on request
McGrath 56A BROOK ST, NAREMBURN, NSW, 2065 3 2 2 For Sale: $2,000,000 - $2,200,000
McGrath 30 MARKET ST, NAREMBURN, NSW, 2065 3 2 2 Price on request
McGrath 24 MARKET ST, NAREMBURN, NSW, 2065 3 2 1 Price on Request
RayWhite UNIT 6, 5-7 RUTH ST, NAREMBURN, NSW, 2065 2 2 1 For Sale $910,000

Local Schools


Naremburn School

(While the above schools are located with the suburb of Naremburn there may also be nearby schools whose catchments cover this suburb)

Local Crime Rates


Average Local Climate by month


(mm)
RAIN
Min (°C)
TEMP
Max (°C)
TEMP
Min (%)
HUMIDITY
Max (%)
HUMIDITY
(m/sec)
WIND
(MJ/sq m)
SOLAR
Jan2.520.327.652.485.5023.2
Feb4.320.127.054.286.5019.6
Mar6.518.925.954.587.3015.9
Apr5.915.323.551.489.0013.9
May2.612.321.247.584.4011.4
Jun4.610.318.550.385.409.1
Jul2.69.018.243.782.1010.4
Aug2.69.719.739.480.2013.1
Sept1.412.522.437.080.2017.8
Oct2.215.023.742.782.8021.1
Nov3.417.125.349.285.2023.4
Dec2.118.726.449.284.8024.4

source: Australian Government Bureau of Meteorology

Recently Sold Properties / House Prices

09-06-2022 $1,800,000 7 / 14 TALUS ST NAREMBURN 2065
08-06-2022 $2,780,000 24 LAWSON LANE NAREMBURN 2065
01-06-2022 $1,320,000 1 / 3 CENTRAL ST NAREMBURN 2065
01-06-2022 $1,320,000 1 / 3 CENTRAL ST NAREMBURN 2065
30-05-2022 $3,267,000 9 ADOLPHUS ST NAREMBURN 2065
27-05-2022 $2,600,000 17 PLUNKETT ST NAREMBURN 2065
20-05-2022 $3,218,000 25 MITCHELL ST NAREMBURN 2065
16-05-2022 $1,500,000 7 / 13 OLYMPIA RD NAREMBURN 2065
11-05-2022 $1,705,000 13 / 3 TALUS ST NAREMBURN 2065
09-05-2022 $2,831,000 126 NORTHCOTE ST NAREMBURN 2065
04-05-2022 $1,700,000 202 WILLOUGHBY RD NAREMBURN 2065
04-05-2022 $1,700,000 202 WILLOUGHBY RD NAREMBURN 2065
04-05-2022 $1,700,000 202 WILLOUGHBY RD NAREMBURN 2065
04-05-2022 $1,700,000 202 WILLOUGHBY RD NAREMBURN 2065
04-05-2022 $1,700,000 202 WILLOUGHBY RD NAREMBURN 2065
04-05-2022 $1,700,000 202 WILLOUGHBY RD NAREMBURN 2065
04-05-2022 $1,700,000 202 WILLOUGHBY RD NAREMBURN 2065
04-05-2022 $1,700,000 202 WILLOUGHBY RD NAREMBURN 2065
04-05-2022 $1,700,000 202 WILLOUGHBY RD NAREMBURN 2065
04-05-2022 $1,700,000 202 WILLOUGHBY RD NAREMBURN 2065
04-05-2022 $1,700,000 202 WILLOUGHBY RD NAREMBURN 2065
04-05-2022 $1,700,000 202 WILLOUGHBY RD NAREMBURN 2065
04-05-2022 $1,700,000 202 WILLOUGHBY RD NAREMBURN 2065
04-05-2022 $1,700,000 202 WILLOUGHBY RD NAREMBURN 2065
04-05-2022 $1,700,000 202 WILLOUGHBY RD NAREMBURN 2065
04-05-2022 $1,700,000 202 WILLOUGHBY RD NAREMBURN 2065
04-05-2022 $1,700,000 202 WILLOUGHBY RD NAREMBURN 2065
04-05-2022 $1,700,000 202 WILLOUGHBY RD NAREMBURN 2065
04-05-2022 $1,700,000 202 WILLOUGHBY RD NAREMBURN 2065
04-05-2022 $1,700,000 202 WILLOUGHBY RD NAREMBURN 2065
04-05-2022 $1,700,000 202 WILLOUGHBY RD NAREMBURN 2065
26-04-2022 $1,135,000 20 / 202 WILLOUGHBY RD NAREMBURN 2065
21-04-2022 $2,900,000 51 DALLEYS RD NAREMBURN 2065
21-04-2022 $2,920,000 5 SLADE ST NAREMBURN 2065
14-04-2022 $3,500,000 58 NORTHCOTE ST NAREMBURN 2065
14-04-2022 $4,640,000 20 WHEATLEIGH ST NAREMBURN 2065
13-04-2022 $1,170,000 3 / 207 WILLOUGHBY RD NAREMBURN 2065
12-04-2022 $2,500,000 20 OLYMPIA RD NAREMBURN 2065
11-04-2022 $3,500,000 94 CHANDOS ST NAREMBURN 2065
08-04-2022 $710,000 24 / 15 HERBERT ST NAREMBURN 2065
28-03-2022 $4,350,000 22 STATION ST NAREMBURN 2065
25-03-2022 $1,111,000 1 / 207 WILLOUGHBY RD NAREMBURN 2065
17-03-2022 $850,000 1 / 10 DALLEYS RD NAREMBURN 2065
17-03-2022 $4,200,000 2 OXLEY ST NAREMBURN 2065
16-03-2022 $2,400,000 7 MARTIN ST NAREMBURN 2065
04-02-2022 $1,312,000 9 / 15 HERBERT ST NAREMBURN 2065
02-02-2022 $1,180,000 50 / 252 WILLOUGHBY RD NAREMBURN 2065
02-02-2022 $3,825,000 27 MARKS ST NAREMBURN 2065
28-01-2022 $4,150,000 35 PARK RD NAREMBURN 2065
24-01-2022 $760,000 60 / 252 WILLOUGHBY RD NAREMBURN 2065

Internet Speed

  • Fibre to the Basement (vectored or non-vectored)
  • Fibre to the Premises
  • Hybrid Fibre Coaxial (HFC)
  • Satellite

Residz covers 12m+ Australian properties and brings together a wealth of data to give you a better understanding of an area. From crime and schools to bush fire, flood risk and more. Begin your search for properties for sale or learn more about where you currently reside. Residz is an exciting next-generation Real Estate platform getting better by the day!